Date,TemperatureHighF,TemperatureAvgF,TemperatureLowF,DewpointHighF,DewpointAvgF,DewpointLowF,HumidityHigh,HumidityAvg,HumidityLow,PressureMaxIn,PressureMinIn,WindSpeedMaxMPH,WindSpeedAvgMPH,GustSpeedMaxMPH,PrecipitationSumIn
2014-1-1,1.4,-3.7,-9.8,-15.8,-21.2,-26.9,45,42,39,30.33,30.10,4,2,6,0.00
2014-1-2,1.6,-4.8,-10.3,-18.5,-24.7,-32.2,48,37,24,30.36,30.13,5,2,8,0.00
2014-1-3,27.1,7.4,-12.1,15.9,-7.4,-31.3,64,50,34,30.17,29.19,9,4,23,0.00
2014-1-4,34.0,14.3,-3.8,26.9,1.0,-19.7,76,55,41,30.06,29.10,14,7,22,0.00
2014-1-5,-4.0,-11.3,-21.1,-19.7,-31.5,-45.5,46,35,24,30.29,29.85,12,7,20,0.00
2014-1-6,-14.8,-19.4,-24.3,-31.4,-39.7,-46.2,43,33,26,30.22,29.92,15,7,21,0.00
2014-1-7,3.0,-5.7,-15.5,-17.9,-23.5,-31.4,48,41,30,30.13,29.90,7,3,11,0.00
2014-1-8,0.3,-6.2,-11.7,-18.8,-22.7,-26.6,49,43,34,30.38,30.01,6,2,8,0.00
2014-1-9,22.3,7.6,-7.6,7.2,-6.2,-23.2,66,52,44,30.33,29.64,7,3,13,0.00
2014-1-10,30.0,24.3,14.0,25.0,17.8,4.8,82,76,66,29.67,29.14,5,2,9,0.00
2014-1-12,36.7,36.0,34.6,26.4,25.6,25.0,68,66,64,29.29,29.18,5,4,9,0.00
2014-1-13,34.5,28.4,25.0,25.2,17.6,10.2,72,64,51,29.55,29.17,11,5,17,0.00
2014-1-14,30.0,18.9,5.4,24.9,8.4,-8.0,82,63,47,29.95,29.16,10,6,18,0.00
2014-1-15,26.0,9.6,-1.5,14.8,-2.9,-14.4,69,56,49,29.97,29.15,12,4,23,0.00
2014-1-16,34.2,18.4,3.7,27.9,5.2,-12.8,82,57,39,29.70,29.02,18,9,35,0.01
2014-1-17,8.8,4.5,-2.0,-5.0,-10.6,-16.4,56,49,39,29.84,29.50,10,5,17,0.00
2014-1-18,20.6,14.3,7.8,9.9,4.1,-4.6,68,63,56,29.79,29.25,7,3,13,0.00
2014-1-19,37.8,29.5,15.2,24.3,18.3,5.3,72,63,53,29.49,29.15,9,5,15,0.04
2014-1-20,28.2,15.7,-4.0,19.0,0.2,-31.6,71,52,21,30.25,29.41,13,6,17,0.00
2014-1-21,6.0,-5.8,-16.6,-7.4,-25.1,-35.2,53,38,25,30.27,29.59,5,2,11,0.00
2014-1-22,7.2,0.3,-11.3,-4.1,-17.2,-30.0,59,43,28,30.29,29.59,12,7,21,0.00
2014-1-23,2.8,-11.4,-19.5,-12.7,-28.8,-36.7,50,40,31,30.50,29.92,9,5,16,0.00
2014-1-24,32.4,22.9,3.1,28.1,9.7,-15.2,85,58,33,29.91,28.90,10,6,21,0.00
2014-1-25,28.4,6.1,0.5,13.3,-18.1,-24.6,54,32,19,29.80,29.20,14,7,21,0.00
2014-1-26,17.2,6.7,-9.2,4.6,-7.7,-28.4,67,51,31,29.86,29.04,19,9,32,0.00
2014-1-27,-8.5,-13.3,-17.7,-28.6,-34.5,-41.8,43,33,24,30.16,29.85,13,7,21,0.00
2014-1-28,-1.5,-8.8,-15.7,-21.2,-26.5,-31.1,44,40,31,30.16,29.70,8,5,16,0.00
2014-1-29,32.1,13.2,-4.9,11.3,-6.5,-22.1,45,40,32,29.82,29.14,8,4,18,0.00
2014-1-30,29.3,15.2,-4.9,15.4,-0.1,-22.1,72,51,40,29.89,29.12,11,6,20,0.00
2014-1-31,8.8,-1.5,-10.1,-13.5,-19.5,-26.0,48,41,30,29.93,29.52,7,3,11,0.00
2014-2-1,19.4,9.1,-2.9,4.4,-6.5,-18.9,56,48,43,30.00,29.56,11,5,18,0.00
2014-2-2,13.9,0.8,-7.9,-5.2,-14.1,-22.3,57,49,38,30.18,29.92,7,3,11,0.00
2014-2-3,15.2,6.9,1.6,-2.6,-7.3,-11.2,57,51,44,30.16,29.74,8,4,11,0.00
2014-2-4,10.7,4.1,0.3,-5.7,-12.3,-18.9,56,46,35,30.27,29.91,7,3,11,0.00
2014-2-5,3.2,-1.8,-8.5,-14.3,-20.0,-24.9,50,41,34,30.38,29.96,10,6,15,0.00
2014-2-6,3.2,-5.2,-13.0,-14.5,-21.3,-28.6,51,44,36,30.24,29.81,9,4,15,0.00
2014-2-7,12.4,2.2,-6.3,-9.6,-17.1,-22.4,49,40,25,30.08,29.66,7,4,15,0.00
2014-2-8,18.2,7.9,-1.5,0.1,-6.9,-17.2,59,50,41,29.97,29.72,4,2,9,0.00
2014-2-9,9.5,-1.0,-9.2,-1.9,-17.1,-26.6,59,46,32,30.20,29.89,11,5,16,0.00
2014-2-10,3.2,-6.7,-15.0,-17.8,-23.6,-30.3,51,42,32,30.35,29.95,8,4,11,0.00
2014-2-11,12.3,2.3,-11.4,-3.9,-13.5,-26.6,54,47,37,30.22,29.64,8,3,13,0.00
2014-2-12,24.8,17.4,10.6,11.3,5.8,-3.5,63,60,52,29.83,29.49,6,2,11,0.00
2014-2-13,30.9,15.0,1.8,20.9,3.5,-11.0,71,60,50,29.58,29.07,15,7,35,0.00
2014-2-14,12.9,4.4,-1.5,-5.8,-10.7,-14.8,56,49,40,29.84,29.47,10,5,17,0.00
2014-2-15,17.2,10.1,-0.5,6.7,-1.9,-14.5,64,57,49,29.88,29.22,7,3,12,0.00
2014-2-16,18.8,14.4,6.4,10.4,4.1,-4.4,69,63,54,30.01,29.40,9,3,15,0.00
2014-2-17,28.0,22.9,18.7,22.1,15.9,10.2,78,74,69,29.60,29.06,12,4,19,0.00
2014-2-18,33.3,28.9,21.6,28.7,23.3,15.5,83,79,73,29.61,29.14,9,4,12,0.14
2014-2-19,36.7,30.0,23.2,30.2,23.7,16.1,83,77,73,29.59,29.41,6,3,9,0.00
2014-2-20,35.6,31.1,14.0,29.6,24.9,6.4,84,78,71,29.42,28.83,6,1,11,0.04
2014-2-21,15.6,10.6,3.9,6.2,0.7,-5.8,72,63,57,29.52,29.02,11,1,15,0.00
2014-2-22,13.1,8.3,2.5,-1.2,-5.4,-9.2,58,53,47,29.95,29.52,11,7,20,0.00
2014-2-23,14.7,7.5,0.5,-0.7,-7.1,-13.7,55,50,44,30.10,29.91,11,8,21,0.00
2014-2-24,10.2,3.6,-4.2,-5.0,-11.6,-17.9,61,49,38,30.18,29.79,7,5,15,0.00
2014-2-25,4.3,-3.4,-9.5,-7.7,-20.0,-30.6,60,44,33,30.22,29.78,11,6,17,0.00
2014-2-26,18.5,1.3,-11.9,0.9,-17.1,-29.8,52,41,24,30.09,29.08,23,8,34,0.00
2014-2-27,-0.9,-8.4,-15.5,-24.4,-36.5,-40.9,36,23,19,29.93,29.66,12,3,49,0.00
2014-2-28,15.6,3.5,-12.8,1.6,-13.9,-37.1,59,44,25,30.00,29.29,8,3,14,0.00
2014-3-1,7.4,-2.7,-9.2,-7.6,-25.3,-35.4,49,33,21,30.38,29.96,9,5,15,0.00
2014-3-2,-0.4,-8.7,-18.4,-23.0,-33.2,-44.0,42,28,21,30.49,30.24,8,4,15,0.00
2014-3-3,14.0,1.2,-10.3,-8.5,-18.0,-27.9,50,39,29,30.34,29.83,4,2,9,0.00
2014-3-4,21.7,13.2,6.1,3.8,-1.1,-8.5,62,52,41,30.12,29.67,5,1,9,0.00
2014-3-5,27.2,15.8,10.6,5.9,2.0,-2.4,64,54,38,30.29,30.01,6,2,12,0.00
2014-3-6,28.6,19.4,9.1,16.9,7.1,-5.3,68,58,51,30.12,29.44,9,3,14,0.00
2014-3-7,34.5,28.1,23.7,25.4,17.7,10.4,75,65,54,30.02,29.47,8,5,13,0.04
2014-3-8,29.8,21.2,15.6,10.6,6.5,2.6,60,53,37,30.18,29.96,7,3,11,0.04
2014-3-9,44.0,32.8,15.8,30.4,19.8,4.0,66,58,49,30.00,29.26,9,4,15,0.01
2014-3-10,50.2,43.5,39.2,32.2,30.5,28.8,67,60,47,29.53,29.30,8,4,14,0.00
2014-3-11,42.8,38.1,30.0,32.3,24.2,11.5,80,58,34,29.80,29.40,10,4,15,0.12
2014-3-12,29.5,23.0,16.3,14.7,5.3,0.0,55,46,30,29.94,29.70,10,4,17,0.01
2014-3-13,51.8,35.4,18.5,33.7,21.7,3.2,72,58,44,29.77,29.29,6,3,9,0.00
2014-3-14,44.8,36.8,27.3,30.0,24.5,10.9,71,61,49,29.74,29.19,16,8,25,0.00
2014-3-15,31.3,25.5,21.0,12.7,7.1,-2.2,59,46,32,30.23,29.67,6,2,9,0.00
2014-3-16,30.5,19.1,8.2,9.3,-1.4,-12.5,51,40,30,30.37,29.62,6,1,8,0.00
2014-3-17,40.2,29.2,21.4,23.8,15.9,5.9,64,57,50,29.62,29.08,9,3,15,0.01
2014-3-18,35.1,31.1,27.9,24.4,19.8,15.0,79,63,51,29.60,29.24,6,2,8,0.01
2014-3-19,35.8,30.0,25.0,23.8,19.6,16.7,79,65,50,29.80,29.46,9,4,15,0.08
2014-3-20,47.8,34.8,25.5,31.9,23.4,19.0,82,64,41,29.78,29.56,4,2,8,0.00
2014-3-21,44.1,33.9,23.6,31.8,22.9,9.6,72,64,55,29.91,29.37,16,6,23,0.00
2014-3-22,22.9,15.2,7.3,9.1,-3.0,-9.4,56,44,31,30.30,29.91,12,6,18,0.00
2014-3-23,25.5,16.2,6.4,3.8,-1.8,-8.3,51,44,33,30.35,30.10,7,2,11,0.00
2014-3-24,30.3,23.2,17.4,23.2,8.6,-0.2,78,54,33,30.26,29.60,14,3,21,0.01
2014-3-25,21.9,16.2,8.1,11.0,-5.4,-16.3,65,38,28,30.06,29.73,12,6,17,0.00
2014-3-26,41.0,27.7,12.9,22.8,10.6,-2.2,55,48,39,29.85,29.26,8,3,15,0.00
2014-3-27,39.7,35.9,30.4,33.7,29.4,22.5,84,78,52,29.54,28.94,9,2,11,0.44
2014-3-28,40.7,32.1,27.5,22.9,15.4,5.7,75,51,32,30.01,29.55,6,2,8,0.05
2014-3-29,48.3,34.5,23.5,23.2,12.1,4.3,60,41,19,30.08,29.77,4,1,9,0.00
2014-3-30,64.2,47.7,35.0,40.7,32.1,22.6,66,55,39,29.87,29.41,7,3,16,0.00
2014-3-31,57.4,46.9,29.1,45.4,35.5,21.1,81,65,55,29.42,28.99,9,3,19,0.07
2014-4-1,32.5,26.3,19.2,26.3,17.1,10.1,83,68,58,29.86,29.12,15,8,30,0.00
2014-4-2,44.6,32.2,19.8,23.2,17.9,11.9,73,56,41,29.91,29.68,5,2,9,0.00
2014-4-3,36.3,32.7,29.8,26.0,23.5,16.9,83,70,45,29.74,29.33,6,2,13,0.02
2014-4-4,40.1,31.5,24.6,25.3,21.6,18.9,83,68,45,29.86,29.34,11,6,18,0.21
2014-4-5,52.2,37.5,25.2,34.0,26.1,18.7,81,64,45,29.93,29.64,6,2,11,0.01
2014-4-6,63.3,50.0,39.7,39.5,33.0,26.0,71,53,39,29.79,29.56,6,3,16,0.00
2014-4-7,59.0,49.7,42.5,41.0,34.5,25.9,80,58,33,29.60,29.45,10,4,17,0.00
2014-4-8,52.5,42.2,33.1,28.6,24.1,20.5,66,50,31,29.80,29.50,9,5,15,0.00
2014-4-9,71.8,54.2,36.3,41.1,29.7,22.5,62,41,21,29.73,29.27,10,4,18,0.00
2014-4-10,61.6,53.3,44.4,42.7,25.0,10.0,63,37,14,29.67,29.28,13,6,28,0.00
2014-4-11,64.6,53.8,43.9,36.8,28.2,19.6,67,39,18,29.68,29.60,7,2,11,0.00
2014-4-12,58.9,49.2,42.8,47.6,40.9,30.1,94,75,42,29.65,29.41,10,3,12,0.25
2014-4-13,44.4,40.3,34.3,41.7,34.6,21.4,94,81,59,29.69,29.44,15,6,18,0.01
2014-4-14,37.0,30.4,24.8,21.4,5.5,-6.0,63,38,16,29.90,29.58,15,8,21,0.00
2014-4-15,39.0,28.1,16.9,14.6,2.2,-7.3,59,36,15,29.89,29.65,7,2,12,0.00
2014-4-16,45.5,35.3,31.8,32.8,23.5,14.6,94,64,49,29.89,29.35,10,5,18,0.66
2014-4-17,41.9,33.5,28.4,30.9,26.5,21.3,96,77,55,30.09,29.66,7,1,11,0.01
2014-4-18,54.3,42.2,30.6,32.3,27.0,20.8,79,56,38,30.06,29.84,7,3,15,0.00
2014-4-19,71.6,52.9,41.0,54.7,39.4,26.8,92,62,36,29.95,29.66,7,3,20,0.14
2014-4-20,75.9,61.5,52.5,56.7,52.4,47.2,93,74,43,29.79,29.70,4,1,9,0.04
2014-4-21,67.6,57.6,46.3,55.7,43.0,27.3,95,63,29,29.86,29.64,12,5,25,0.33
2014-4-22,59.2,48.2,37.2,31.1,27.0,18.7,75,46,22,29.87,29.75,8,3,15,0.00
2014-4-23,46.1,41.6,39.0,37.1,31.2,21.6,91,68,38,29.84,29.51,7,4,15,0.30
2014-4-24,46.0,41.6,39.2,43.8,39.7,36.7,99,93,83,29.63,29.22,7,3,17,0.69
2014-4-25,64.4,51.5,39.7,43.2,38.8,29.3,99,67,28,29.68,29.38,12,4,20,0.01
2014-4-26,55.2,45.1,35.2,37.0,31.1,28.5,78,60,38,29.80,29.55,11,3,17,0.02
2014-4-27,45.7,40.6,38.3,42.1,37.2,33.6,99,88,65,29.71,29.14,15,7,22,1.35
2014-4-28,43.5,41.9,40.1,42.1,39.8,37.1,99,92,84,29.35,29.11,11,5,21,0.99
2014-4-29,41.5,36.1,32.9,37.8,34.2,31.0,98,93,82,29.58,29.21,10,5,15,0.39
2014-4-30,42.6,38.3,33.3,39.0,36.1,32.0,97,92,83,29.54,29.28,9,5,13,0.01
2014-5-1,47.3,41.5,36.9,39.2,37.3,34.3,97,85,71,29.63,29.35,8,5,15,0.01
2014-5-2,61.8,49.1,41.2,43.5,38.8,34.0,85,69,40,29.61,29.23,11,3,18,0.00
2014-5-3,60.2,50.3,42.1,37.2,32.3,25.6,70,52,29,29.67,29.44,13,6,23,0.00
2014-5-4,61.2,49.4,36.7,31.8,25.4,18.1,66,42,19,29.91,29.66,9,2,15,0.00
2014-5-5,69.8,56.3,47.5,34.8,30.2,25.7,53,38,19,29.72,29.63,6,2,11,0.00
2014-5-6,68.2,56.7,44.6,39.7,34.6,28.3,68,46,24,29.70,29.49,10,4,18,0.00
2014-5-7,66.4,58.2,48.6,51.1,44.3,37.0,81,60,51,29.51,29.35,11,4,17,0.18
2014-5-8,72.5,57.3,50.4,61.5,54.6,48.9,99,91,63,29.53,29.24,10,2,19,0.67
2014-5-9,59.3,51.1,45.9,59.1,44.7,37.1,99,80,52,29.67,29.27,12,5,21,0.01
2014-5-10,71.6,57.3,46.6,53.2,44.1,37.9,89,64,37,29.69,29.53,6,3,12,0.07
2014-5-11,71.2,60.7,52.7,58.1,52.7,48.2,95,76,54,29.59,29.46,7,1,11,0.67
2014-5-12,60.8,56.6,47.3,60.3,56.2,46.5,99,98,95,29.59,29.41,8,2,15,0.44
2014-5-13,51.3,47.2,43.5,46.5,39.0,33.0,99,74,51,29.96,29.58,12,6,21,0.00
2014-5-14,60.6,49.7,39.0,38.1,29.8,19.3,82,51,21,30.02,29.86,7,3,12,0.00
2014-5-15,48.9,43.8,39.0,31.0,28.1,23.0,70,54,37,30.00,29.73,8,5,11,0.00
2014-5-16,52.9,45.9,39.0,33.6,24.6,12.3,78,47,20,29.89,29.71,7,2,12,0.00
2014-5-17,66.6,55.4,40.6,29.3,21.7,9.7,56,31,11,29.83,29.65,10,3,17,0.00
2014-5-18,76.3,62.5,50.5,40.4,29.9,18.3,51,32,12,29.88,29.74,6,2,11,0.00
2014-5-19,60.1,53.8,51.3,52.9,47.0,35.5,99,81,40,29.82,29.43,8,3,15,0.79
2014-5-20,75.0,63.4,52.3,63.0,57.0,50.7,99,82,54,29.63,29.48,4,1,6,0.00
2014-5-21,66.1,59.7,53.1,55.9,47.6,43.8,85,65,51,29.89,29.62,8,4,12,0.00
2014-5-22,70.5,60.1,47.9,47.1,42.8,36.3,84,56,33,29.98,29.85,6,2,9,0.00
2014-5-23,81.9,67.7,54.5,47.0,40.9,34.7,62,40,19,29.98,29.93,4,1,7,0.00
2014-5-24,85.8,70.3,57.7,49.2,42.7,36.3,56,39,21,29.97,29.85,4,1,7,0.00
2014-5-25,82.6,70.1,56.7,62.4,52.8,41.8,76,55,36,29.90,29.74,5,1,10,0.00
2014-5-26,84.0,73.1,65.5,64.9,62.7,59.5,91,72,48,29.79,29.72,6,1,9,0.00
2014-5-27,70.9,67.0,62.4,67.8,64.4,59.3,99,92,80,29.84,29.68,6,2,9,0.02
2014-5-28,85.3,70.5,58.8,62.4,56.1,48.3,92,64,37,29.97,29.81,3,1,6,0.00
2014-5-29,89.6,73.5,57.9,51.4,43.4,35.2,69,37,16,29.97,29.86,5,1,9,0.00
2014-5-30,92.7,77.4,64.9,62.2,56.1,41.1,70,49,34,29.99,29.90,5,1,9,0.00
2014-5-31,89.6,74.5,67.6,70.0,62.2,51.7,93,67,40,29.93,29.76,4,1,8,0.25
2014-6-1,67.5,65.6,63.3,66.6,64.4,62.3,99,96,93,29.79,29.50,2,1,4,1.12
2014-6-2,78.4,67.5,60.6,67.4,60.4,54.3,99,80,51,29.71,29.47,9,3,17,0.06
2014-6-3,76.0,64.9,54.7,55.9,53.0,47.8,92,67,41,29.77,29.61,6,2,12,0.00
2014-6-4,84.8,71.3,60.1,57.7,53.0,46.8,84,56,33,29.76,29.65,2,0,6,0.00
2014-6-5,79.8,67.7,61.2,60.8,56.6,51.3,87,69,39,29.80,29.66,5,1,11,0.04
2014-6-6,88.9,72.0,59.9,66.1,57.2,47.8,93,64,27,29.84,29.67,4,1,6,0.00
2014-6-7,67.8,57.7,52.9,60.3,55.5,52.4,99,93,71,29.88,29.74,7,2,9,0.78
2014-6-8,75.4,62.7,51.1,55.6,47.7,37.0,99,64,28,29.83,29.75,2,0,6,0.00
2014-6-9,70.1,63.1,56.0,54.0,50.4,44.4,84,64,52,29.81,29.69,4,1,5,0.01
2014-6-10,81.6,68.8,56.5,57.2,52.5,49.2,87,59,33,29.75,29.63,4,1,9,0.00
2014-6-11,85.3,72.3,60.6,59.5,54.2,51.1,81,55,37,29.69,29.52,3,0,8,0.05
2014-6-12,65.3,59.0,55.4,62.6,49.2,43.9,93,71,56,29.81,29.56,9,4,17,0.02
2014-6-13,79.3,64.8,51.1,49.4,45.0,40.8,76,51,29,29.93,29.73,3,1,7,0.01
2014-6-14,64.8,60.2,57.7,57.8,52.8,46.9,93,77,60,29.81,29.41,7,2,16,0.83
2014-6-15,73.8,64.9,56.7,64.3,56.9,52.9,99,78,48,29.62,29.17,7,3,15,0.81
2014-6-16,86.0,69.6,60.8,66.1,59.2,53.4,95,72,42,29.78,29.48,10,2,17,0.40
2014-6-17,83.8,72.1,61.2,66.9,63.1,57.7,91,75,52,29.71,29.51,3,1,6,0.00
2014-6-18,84.1,74.7,65.1,70.5,66.1,62.2,97,76,52,29.82,29.62,5,2,11,0.20
2014-6-19,74.3,68.1,64.2,69.3,65.8,63.4,99,93,77,29.91,29.74,6,2,11,1.77
2014-6-20,88.0,73.9,65.7,70.1,64.0,55.7,99,76,39,29.84,29.74,2,0,4,0.00
2014-6-21,87.3,76.1,68.4,66.0,60.7,54.6,89,62,37,29.82,29.68,2,1,4,0.00
2014-6-22,77.9,71.3,66.4,67.7,62.3,55.8,91,74,60,29.80,29.60,4,0,4,0.00
2014-6-23,80.9,72.8,66.2,69.5,63.0,56.6,98,74,50,29.76,29.68,4,1,6,0.00
2014-6-24,82.6,73.1,64.1,63.9,59.5,55.4,87,64,42,29.82,29.71,4,2,6,0.00
2014-6-25,71.8,65.2,59.2,62.2,58.9,56.6,94,81,64,29.90,29.73,2,1,4,0.00
2014-6-26,84.5,70.9,58.3,68.1,63.3,56.9,99,79,55,29.87,29.68,5,2,11,0.00
2014-6-27,82.9,73.7,68.4,70.0,67.0,65.4,92,80,60,29.73,29.58,3,2,7,0.00
2014-6-28,84.7,73.7,67.6,72.9,68.7,63.7,98,85,64,29.65,29.52,4,2,9,0.34
2014-6-29,82.4,71.7,61.5,68.2,64.0,59.4,99,79,51,29.62,29.52,4,1,8,0.01
2014-6-30,77.0,69.4,63.0,68.3,61.1,51.7,90,76,54,29.64,29.36,5,1,9,0.06
2014-7-1,71.8,63.6,56.4,62.8,56.0,49.9,93,77,59,29.67,29.38,9,3,16,0.12
2014-7-2,71.2,61.0,52.9,53.7,48.8,42.4,98,68,41,29.82,29.67,5,2,8,0.04
2014-7-3,77.6,66.3,57.2,54.8,48.0,43.0,81,54,34,30.03,29.82,3,1,4,0.00
2014-7-4,80.0,70.2,60.6,56.2,50.4,42.3,68,50,33,30.09,29.97,2,1,7,0.00
2014-7-5,84.4,73.0,64.0,67.3,62.6,54.4,86,71,54,29.97,29.73,2,1,8,0.01
2014-7-6,86.0,75.0,58.4,73.6,67.1,55.7,98,79,41,29.76,29.56,6,2,13,0.08
2014-7-7,84.9,72.3,65.1,66.5,61.7,58.3,98,72,42,29.68,29.45,10,2,21,0.13
2014-7-8,74.3,66.9,60.3,64.4,55.6,49.3,97,69,45,29.81,29.56,8,4,14,0.00
2014-7-9,78.3,67.7,57.9,57.3,53.5,49.3,84,63,41,29.91,29.81,3,1,4,0.00
2014-7-10,85.3,72.7,60.4,65.3,59.0,53.7,85,64,44,29.94,29.85,2,1,5,0.00
2014-7-11,81.9,71.9,63.9,71.7,65.6,59.0,97,81,63,29.92,29.77,3,1,8,0.33
2014-7-12,75.2,70.1,66.6,72.6,67.6,63.9,99,92,81,29.93,29.76,4,1,7,0.47
2014-7-13,74.7,68.5,62.4,65.4,54.6,43.8,96,65,36,29.85,29.76,5,2,10,0.00
2014-7-14,64.9,59.3,54.5,55.5,49.7,44.8,97,72,50,29.87,29.75,8,4,13,0.02
2014-7-15,68.2,60.8,53.4,53.2,50.7,47.4,94,71,52,29.89,29.76,5,2,8,0.00
2014-7-16,77.0,65.9,55.2,56.9,50.6,46.3,89,61,37,29.93,29.80,2,1,4,0.00
2014-7-17,79.8,68.7,59.2,58.5,53.3,47.2,74,59,40,29.89,29.80,2,0,4,0.00
2014-7-18,79.3,69.5,59.4,62.0,57.7,53.8,85,67,49,29.90,29.79,3,1,7,0.00
2014-7-19,79.7,71.3,62.8,64.1,61.0,57.6,85,71,53,29.84,29.70,3,1,7,0.00
2014-7-20,87.3,76.4,68.9,68.6,64.7,62.1,83,68,48,29.75,29.68,3,1,8,0.00
2014-7-21,93.2,81.1,72.7,75.4,71.1,65.5,85,73,54,29.82,29.64,3,1,8,0.00
2014-7-22,80.9,76.7,68.5,75.9,65.1,54.2,92,69,47,30.03,29.61,7,2,13,0.00
2014-7-23,80.0,71.4,62.1,59.3,54.3,48.9,84,57,39,30.14,29.98,3,1,4,0.00
2014-7-24,84.4,71.2,62.1,61.6,56.9,50.4,76,62,41,30.05,29.77,3,0,8,0.00
2014-7-25,81.1,71.0,63.0,70.3,65.3,58.1,97,83,64,29.86,29.61,3,1,6,0.00
2014-7-26,83.1,75.7,70.5,72.1,67.7,60.5,95,78,49,29.74,29.62,7,1,11,0.00
2014-7-27,75.3,67.7,62.4,62.8,57.8,55.5,81,71,54,30.00,29.70,8,4,15,0.00
2014-7-28,74.3,66.7,61.5,60.2,55.9,50.8,92,70,46,30.05,29.90,4,2,5,0.00
2014-7-29,77.3,67.8,58.2,60.8,56.2,53.2,92,68,45,29.98,29.87,4,2,8,0.00
2014-7-30,77.9,68.5,59.5,62.0,57.5,54.8,89,70,47,29.94,29.80,4,2,5,0.00
2014-7-31,80.8,71.0,60.3,60.7,56.8,54.8,84,63,41,29.91,29.82,4,2,5,0.00
2014-8-1,85.2,73.9,63.8,62.1,58.5,55.7,79,60,42,29.97,29.85,2,1,4,0.00
2014-8-2,87.9,75.2,65.8,63.4,60.5,56.6,79,62,40,29.98,29.87,3,1,5,0.00
2014-8-3,88.0,76.1,68.9,65.8,62.4,59.6,82,64,41,30.01,29.85,3,1,9,0.00
2014-8-4,80.4,72.6,65.7,70.2,64.8,59.7,95,77,62,29.95,29.84,3,1,4,0.00
2014-8-5,83.8,70.2,62.4,66.1,61.0,58.2,94,74,46,30.02,29.91,2,1,8,0.00
2014-8-6,84.6,72.4,63.0,64.6,59.7,56.2,87,67,42,30.02,29.89,4,0,6,0.00
2014-8-7,87.8,73.8,62.6,63.4,59.5,54.7,91,64,38,29.99,29.83,4,1,6,0.00
2014-8-8,86.5,73.5,64.1,63.0,60.2,56.8,85,65,38,29.97,29.90,2,1,5,0.00
2014-8-9,78.4,71.6,64.2,65.6,61.5,58.8,91,72,53,30.00,29.88,2,1,6,0.00
2014-8-10,86.2,73.5,64.4,66.7,62.8,59.8,89,71,43,29.96,29.80,3,0,4,0.00
2014-8-11,73.4,66.9,62.3,66.9,62.1,54.1,99,86,54,29.93,29.80,6,3,8,0.00
2014-8-12,76.1,67.2,57.2,63.1,54.4,46.6,99,68,38,29.93,29.83,6,2,9,0.00
2014-8-13,81.3,70.7,61.4,62.2,57.6,54.8,80,64,44,29.99,29.85,4,2,5,0.00
2014-8-14,85.1,70.0,59.0,58.9,54.9,50.4,74,60,38,29.99,29.83,2,1,7,0.00
2014-8-15,84.9,72.9,63.1,66.4,62.3,56.3,86,71,49,29.87,29.73,2,0,4,0.00
2014-8-16,84.6,72.9,64.8,70.2,66.9,63.2,96,83,60,29.84,29.73,3,0,4,0.00
2014-8-17,88.1,73.3,66.6,72.4,68.8,66.0,98,87,55,29.85,29.65,7,1,11,0.33
2014-8-18,85.9,73.9,66.7,74.6,67.0,62.0,99,82,46,29.72,29.49,5,1,10,0.05
2014-8-19,78.4,69.4,63.5,66.7,64.3,61.5,99,85,60,29.67,29.55,4,2,7,0.04
2014-8-20,85.8,73.3,64.0,69.9,66.4,62.6,97,81,53,29.75,29.65,4,1,5,0.00
2014-8-21,88.1,75.6,68.0,74.3,70.2,66.8,98,85,57,29.76,29.62,3,1,6,0.19
2014-8-22,81.3,74.5,69.4,71.8,69.2,65.9,98,84,69,29.93,29.79,3,1,4,0.00
2014-8-23,76.4,70.9,68.0,73.0,69.4,66.3,99,95,85,29.89,29.75,4,1,7,0.05
2014-8-24,89.6,77.7,70.9,76.7,72.2,69.1,97,84,58,29.79,29.67,4,1,8,0.12
2014-8-25,78.1,71.6,64.0,69.0,60.8,52.9,92,71,43,29.93,29.75,4,2,8,0.00
2014-8-26,74.4,63.3,54.7,57.0,53.3,48.4,90,71,44,30.00,29.87,3,1,6,0.00
2014-8-27,79.7,67.4,59.0,58.9,57.0,54.8,90,71,46,30.03,29.93,3,0,5,0.00
2014-8-28,68.2,64.0,58.8,65.2,61.1,56.7,99,91,80,30.01,29.74,4,2,8,0.17
2014-8-29,79.5,71.5,65.1,74.3,68.5,64.6,99,91,74,29.90,29.70,3,1,4,0.66
2014-8-30,74.8,68.1,64.0,68.1,64.7,61.4,99,90,67,29.94,29.78,4,1,5,0.44
2014-8-31,84.4,71.2,61.7,69.4,64.7,60.4,99,82,54,29.92,29.59,8,3,15,0.39
2014-9-1,74.5,68.2,63.7,67.1,60.1,53.8,99,77,50,29.82,29.63,7,2,10,0.13
2014-9-2,76.1,68.7,59.7,58.9,55.6,50.7,88,65,43,29.92,29.81,4,2,6,0.00
2014-9-3,80.1,69.5,60.3,71.3,63.4,55.6,92,81,64,29.92,29.60,8,2,11,0.09
2014-9-4,88.2,76.4,66.9,75.8,70.1,56.2,94,82,59,29.93,29.65,7,2,9,0.01
2014-9-5,66.7,59.5,54.7,56.2,50.9,48.5,87,73,62,30.25,29.93,4,2,6,0.01
2014-9-6,73.8,62.7,52.0,54.8,50.7,46.5,85,66,47,30.28,30.09,6,2,7,0.00
2014-9-7,75.8,64.3,55.9,54.6,51.2,46.8,81,64,39,30.13,29.98,6,1,7,0.00
2014-9-8,75.0,64.3,57.3,60.8,55.7,51.6,84,74,55,29.98,29.81,9,1,9,0.00
2014-9-9,74.8,66.3,59.1,67.9,62.5,57.3,96,88,77,29.83,29.67,6,2,7,0.00
2014-9-10,65.9,53.6,46.2,64.4,51.1,41.9,97,91,82,30.08,29.57,11,3,12,0.15
2014-9-11,54.1,48.6,42.9,42.2,39.9,36.1,89,73,52,30.37,30.09,8,2,8,0.00
2014-9-12,52.7,46.9,42.3,43.5,39.5,32.3,93,77,48,30.43,30.36,8,1,8,0.00
2014-9-13,60.9,48.8,39.1,43.3,38.6,35.2,92,70,40,30.36,30.16,3,1,6,0.00
2014-9-14,63.2,54.2,48.1,47.4,43.6,38.2,89,69,43,30.16,30.08,8,1,11,0.04
2014-9-15,58.1,52.5,49.1,49.4,45.0,38.5,96,77,50,30.21,30.11,5,1,5,0.17
2014-9-16,65.8,55.0,44.8,48.0,43.7,38.4,83,67,48,30.21,29.99,5,1,5,0.00
2014-9-17,75.8,61.8,53.2,58.5,52.3,47.3,86,72,49,29.99,29.91,4,0,4,0.00
2014-9-18,74.9,61.0,49.7,59.3,53.2,48.3,97,77,49,30.07,29.95,6,1,7,0.00
2014-9-19,81.0,67.3,55.4,67.8,59.6,51.5,89,77,59,29.97,29.59,10,2,10,0.00
2014-9-20,74.6,65.5,55.9,67.3,59.3,52.4,94,82,51,29.83,29.64,12,2,16,0.17
2014-9-21,63.0,56.5,51.4,53.1,49.6,47.4,90,79,59,30.22,29.81,12,4,12,0.00
2014-9-22,70.7,58.2,47.4,54.1,50.7,45.9,95,78,52,30.26,30.13,5,1,5,0.00
2014-9-23,74.3,61.8,51.7,57.6,52.2,47.8,88,72,49,30.21,30.10,10,1,10,0.00
2014-9-24,64.1,59.9,55.9,56.7,54.5,51.6,95,83,73,30.15,30.09,7,1,9,0.07
2014-9-25,76.0,64.7,57.5,63.3,58.5,54.6,90,81,63,30.19,30.12,8,1,8,0.00
2014-9-26,81.2,68.1,58.9,61.1,57.6,53.8,85,71,49,30.15,30.06,8,2,8,0.00
2014-9-27,82.3,69.2,61.2,63.4,59.5,57.1,88,73,47,30.12,30.03,6,1,11,0.00
2014-9-28,81.4,69.8,60.9,62.4,57.5,54.6,86,67,41,30.09,29.98,2,1,4,0.00
2014-9-29,68.8,57.3,45.4,59.1,51.4,41.8,90,81,61,30.08,29.97,4,2,8,0.00
2014-9-30,58.5,48.7,41.1,48.3,43.7,39.0,93,83,67,30.07,29.82,5,1,13,0.00
2014-10-1,57.9,53.2,49.5,57.1,51.3,45.4,97,93,82,29.86,29.75,10,2,12,1.25
2014-10-2,58.6,55.0,50.2,58.0,54.3,49.7,98,97,95,29.83,29.72,8,2,9,0.50
2014-10-3,50.4,43.8,39.0,49.9,36.1,26.6,98,75,51,29.84,29.71,25,8,27,0.00
2014-10-4,48.2,40.8,35.1,35.0,32.0,29.3,90,72,52,29.82,29.70,23,6,24,0.00
2014-10-5,47.8,41.2,33.7,38.2,33.4,28.8,87,74,57,29.70,29.57,12,2,12,0.00
2014-10-6,60.4,46.8,33.6,42.0,37.3,31.9,94,72,46,29.58,29.45,17,3,17,0.00
2014-10-7,59.2,51.4,45.9,46.1,39.8,33.8,87,66,41,29.86,29.48,22,4,22,0.00
2014-10-8,58.2,47.7,40.0,38.1,34.4,29.1,84,62,36,30.09,29.86,22,3,22,0.00
2014-10-9,51.6,43.3,34.8,35.1,32.3,29.8,84,66,47,30.23,30.09,10,2,10,0.00
2014-10-10,51.3,44.4,35.9,38.4,34.1,31.0,91,68,51,30.28,30.20,8,1,8,0.00
2014-10-11,57.4,46.4,38.6,36.1,32.7,30.1,77,60,40,30.26,29.99,8,1,8,0.00
2014-10-12,58.9,49.2,38.6,48.2,39.4,33.9,88,70,44,29.99,29.75,14,2,14,0.00
2014-10-13,56.3,52.3,49.5,51.6,49.6,47.9,96,90,82,29.79,29.74,9,2,9,0.08
2014-10-14,61.1,53.0,47.3,48.3,43.8,38.1,96,73,46,29.96,29.73,13,5,14,0.02
2014-10-15,62.8,52.4,41.7,42.5,38.7,35.6,87,61,39,30.01,29.84,8,2,8,0.00
2014-10-16,71.7,56.7,40.7,47.7,41.4,35.5,84,58,39,29.84,29.56,13,3,13,0.00
2014-10-17,57.9,51.1,44.0,48.8,44.3,40.1,87,78,68,30.05,29.56,22,6,22,0.00
2014-10-18,51.4,46.0,41.5,41.9,37.8,35.8,87,73,59,30.23,30.04,10,2,10,0.00
2014-10-19,67.3,53.4,40.0,47.0,42.3,35.4,85,68,47,30.11,29.78,13,3,13,0.00
2014-10-20,61.9,52.7,45.5,45.2,42.5,40.1,85,69,49,30.06,29.85,12,3,12,0.00
2014-10-21,58.7,47.6,38.9,44.2,40.5,37.1,94,77,57,30.19,30.06,13,2,13,0.00
2014-10-22,59.7,49.2,39.1,46.6,40.6,36.1,90,73,56,30.20,30.02,18,4,18,0.00
2014-10-23,67.2,55.8,50.2,53.6,48.2,40.8,96,78,41,30.03,29.93,10,2,10,0.03
2014-10-24,67.2,56.8,47.8,56.6,50.5,44.7,91,80,63,29.95,29.81,12,2,12,0.00
2014-10-25,62.6,55.3,48.8,47.5,34.5,26.5,65,47,27,30.05,29.88,16,6,21,0.00
2014-10-26,64.7,53.1,42.7,35.3,30.1,27.2,57,42,26,30.03,29.60,19,3,19,0.00
2014-10-27,64.3,53.9,43.5,47.0,40.9,35.3,90,62,48,29.71,29.51,21,3,21,0.00
2014-10-28,46.6,41.5,38.1,40.9,36.5,31.8,93,82,73,29.99,29.69,28,7,28,0.00
2014-10-29,43.6,38.3,33.9,33.6,31.6,29.6,85,77,67,30.18,29.99,22,4,22,0.00
2014-10-30,48.1,40.7,31.9,39.0,33.2,14.0,88,75,46,30.36,30.04,19,4,19,0.00
2014-10-31,37.4,31.0,25.8,20.0,17.9,13.7,72,58,44,30.58,30.36,18,4,18,0.00
2014-11-1,42.7,32.7,22.6,24.5,20.9,17.3,80,63,44,30.52,30.20,13,2,13,0.00
2014-11-2,57.2,44.4,35.3,32.5,27.6,21.2,63,52,37,30.20,29.88,13,4,23,0.00
2014-11-3,53.1,47.2,41.8,49.9,41.1,30.6,95,80,63,29.88,29.76,17,3,17,0.01
2014-11-4,53.6,42.8,35.8,39.0,33.4,29.8,86,70,43,30.04,29.83,26,8,26,0.01
2014-11-5,45.8,39.9,34.9,38.8,34.8,29.8,94,82,69,30.04,29.85,13,3,13,0.01
2014-11-6,42.4,35.7,30.8,33.2,30.3,27.9,94,81,58,30.30,30.00,17,5,17,0.00
2014-11-7,48.7,39.2,31.7,41.7,32.4,28.6,89,77,62,30.23,29.66,28,4,28,0.00
2014-11-8,40.8,37.3,33.4,34.0,26.4,22.1,79,65,52,30.06,29.83,18,7,21,0.00
2014-11-9,39.1,36.3,31.2,32.4,23.1,11.4,78,60,37,29.83,29.73,11,3,11,0.00
2014-11-10,31.2,27.8,23.9,27.6,24.5,13.4,94,88,48,29.93,29.58,17,7,17,0.00
2014-11-11,25.5,22.7,17.2,21.8,18.7,12.0,92,84,70,30.32,29.89,16,7,16,0.00
2014-11-12,22.0,18.2,11.2,19.1,14.8,8.4,91,86,79,30.39,30.32,15,5,15,0.00
2014-11-13,23.0,19.1,13.2,19.6,15.0,9.9,91,84,74,30.45,30.39,15,6,17,0.00
2014-11-14,20.9,13.2,7.5,13.6,9.0,5.0,90,83,71,30.47,30.38,11,3,11,0.00
2014-11-15,23.3,17.2,8.6,19.6,14.1,5.3,92,87,82,30.40,30.16,7,2,7,0.00
2014-11-16,21.6,12.5,5.5,19.5,8.6,2.5,92,84,70,30.15,29.92,14,4,14,0.00
2014-11-17,13.3,9.2,4.5,7.8,4.0,0.5,87,79,67,30.08,29.96,24,9,24,0.00
2014-11-18,17.8,12.3,6.3,13.0,7.4,2.3,88,81,63,30.13,29.81,16,4,16,0.00
2014-11-19,23.2,19.7,15.2,18.1,13.8,10.2,89,78,62,30.02,29.77,28,9,28,0.00
2014-11-20,16.6,11.3,6.3,10.2,4.9,2.1,84,75,61,30.34,30.02,18,6,18,0.00
2014-11-21,33.7,19.5,5.1,31.1,14.5,1.6,90,81,70,30.35,29.94,17,4,17,0.00
2014-11-22,45.2,35.8,33.7,44.3,34.6,31.1,97,95,90,29.95,29.52,16,3,16,0.22
2014-11-23,51.7,45.0,31.6,49.9,43.6,30.0,97,95,91,29.52,29.33,20,4,20,0.02
2014-11-24,30.2,20.3,13.5,28.7,17.4,9.7,95,88,82,29.97,29.30,28,10,28,0.00
2014-11-25,25.3,17.3,8.6,18.3,12.6,6.0,90,82,64,30.15,29.97,10,2,13,0.00
2014-11-26,25.4,21.5,11.4,23.4,18.3,4.9,93,87,75,30.44,30.07,12,4,12,0.00
2014-11-27,11.3,2.7,-5.4,4.8,-2.7,-8.7,86,78,67,30.59,30.36,10,3,10,0.00
2014-11-28,22.4,17.0,6.2,19.6,13.5,2.9,91,86,79,30.36,29.72,15,5,15,0.00
2014-11-29,39.1,27.8,21.1,31.9,24.8,18.9,95,89,73,29.72,29.44,20,4,20,0.13
2014-11-30,23.7,11.0,2.8,20.7,4.0,-3.4,88,73,60,30.56,29.70,21,8,21,0.00
2014-12-1,5.3,0.2,-4.1,-3.1,-8.2,-11.9,81,67,50,30.86,30.51,16,4,16,0.00
2014-12-2,22.7,17.3,1.6,16.2,9.8,-3.1,83,72,61,30.50,30.03,12,4,16,0.00
2014-12-3,20.6,16.1,12.5,13.1,10.1,8.3,84,77,67,30.39,30.07,14,5,17,0.00
2014-12-4,32.9,23.9,15.3,23.0,15.0,10.5,83,69,44,30.41,30.14,15,3,15,0.00
2014-12-5,30.7,29.0,26.6,28.7,26.8,23.4,95,92,81,30.44,30.12,6,2,10,0.00
2014-12-6,29.1,23.4,17.7,25.6,19.5,14.8,96,85,74,30.69,30.44,8,2,8,0.00
2014-12-7,35.1,30.1,23.8,32.4,26.3,19.7,96,86,78,30.58,30.05,20,4,20,0.00
2014-12-8,34.2,28.5,20.6,33.4,25.5,16.4,97,88,81,30.36,29.99,18,7,24,0.04
2014-12-9,22.0,19.2,14.9,19.4,16.1,11.5,95,87,79,30.54,30.36,10,3,10,0.00
2014-12-10,27.4,25.0,19.9,25.9,23.5,18.5,95,94,92,30.48,30.31,11,2,11,0.00
2014-12-11,31.2,27.8,25.9,30.4,26.7,24.3,97,95,92,30.32,30.23,7,1,7,0.00
2014-12-12,38.1,34.0,31.3,37.6,32.8,30.5,98,95,93,30.25,30.10,8,3,13,0.04
2014-12-13,52.1,43.5,34.7,47.4,42.2,33.9,98,95,83,30.10,29.92,12,3,18,0.00
2014-12-14,49.5,47.5,44.6,49.0,47.0,43.8,98,98,96,29.94,29.78,10,2,10,0.02
2014-12-15,49.5,44.0,29.7,49.0,43.5,28.4,98,98,95,29.82,29.65,16,3,16,0.39
2014-12-16,29.6,20.1,14.4,28.3,17.5,11.7,95,89,85,30.33,29.82,15,8,20,0.00
2014-12-17,15.2,10.4,7.8,11.8,8.0,5.5,91,90,86,30.40,30.31,12,4,12,0.00
2014-12-21,37.6,37.5,37.4,36.8,36.7,36.6,97,97,97,29.74,29.74,12,4,12,0.06
2014-12-22,37.8,35.4,33.3,37.0,34.6,32.4,97,97,96,29.74,29.59,15,4,15,0.29
2014-12-23,34.3,33.3,32.4,33.0,32.2,31.7,98,96,92,29.88,29.59,10,5,13,0.08
2014-12-24,34.0,32.7,30.1,32.6,31.2,28.1,97,94,91,29.86,29.62,15,4,15,0.00
2014-12-25,34.6,31.0,28.1,31.5,29.1,26.5,96,93,87,29.88,29.61,12,2,12,0.00
2014-12-26,31.6,30.3,27.7,30.6,28.6,25.8,97,93,88,30.11,29.86,12,5,12,0.00
2014-12-27,27.7,19.3,11.4,26.0,16.8,7.8,95,90,82,30.17,30.00,15,5,15,0.01
2014-12-28,22.4,14.9,10.1,19.0,11.9,6.1,92,88,76,30.44,30.14,9,2,9,0.00
2014-12-29,12.2,4.7,-3.0,6.4,-0.9,-7.9,81,77,72,30.78,30.43,9,3,9,0.00
2014-12-30,1.4,-4.0,-8.1,-5.2,-8.4,-11.9,85,81,71,30.89,30.73,11,5,14,0.00
2014-12-31,13.4,3.4,-7.5,7.1,-2.0,-11.1,85,78,63,30.73,30.07,22,5,22,0.00
2015-1-1,29.2,20.6,10.4,23.6,15.7,6.7,87,81,74,30.22,29.93,15,5,15,0.00
2015-1-2,27.9,18.4,7.7,22.7,12.6,0.2,87,78,67,30.28,30.03,12,3,12,0.00